Regional Weather Roundup
Issued by NWS

Home | Current Version | Previous Version | Text Only | Print | Product List | Glossary Off
Versions: 1 2 3 4 5 6 7 8 9 10 11 12 13 14 15 16 17 18 19 20 21 22 23 24 25 26 27 28 29 30 31 32 33 34 35 36 37 38 39 40 41 42 43 44 45 46 47 48 49 50

000
ASUS43 KLSX 011759
RWRMO

WEATHER SUMMARY FOR MISSOURI
NATIONAL WEATHER SERVICE SPRINGFIELD MO
100 PM CDT WED JUL 01 2015

NOTE: "FAIR" INDICATES FEW OR NO CLOUDS BELOW 12,000 FEET WITH NO
       SIGNIFICANT WEATHER AND/OR OBSTRUCTIONS TO VISIBILITY.
       CURRENT SKY AND/OR WEATHER CONDITIONS ARE NOT AVAILABLE FOR
       CHILLICOTHE AND FARMINGTON.

MOZ001>031-035>038-043-044-053-054-011900-
...NORTHERN AND WESTERN MISSOURI...

CITY           SKY/WX    TMP DP  RH WIND       PRES   REMARKS
KANSAS CTY INT PTSUNNY   80  73  79 E8        29.86S
6HR MIN TEMP:  69; 6HR MAX TEMP:  81; 6HR PCP:  0.05;

KANSAS C DTWN  FAIR      85  72  65 SW10      29.84S HX  91
6HR MIN TEMP:  70; 6HR MAX TEMP:  85; 6HR PCP:  0.09;

LEE`S SUMMIT   FAIR      81  72  74 S14G21    29.86F
6HR MIN TEMP:  68; 6HR MAX TEMP:  81; 6HR PCP:  0.08;

ST JOSEPH      FAIR      81  71  71 E10       29.85F
6HR MIN TEMP:  69; 6HR MAX TEMP:  81; 6HR PCP:  0.01;

CHILLICOTHE      N/A     77  70  79 SE5       29.90F
6HR MIN TEMP:  70; 6HR MAX TEMP:  78; 6HR PCP:  0.02;

KIRKSVILLE     LGT RAIN  75  69  81 SW6       29.92R
6HR MIN TEMP:  69; 6HR MAX TEMP:  78; 6HR PCP: TRACE;


$$
MOZ066>068-077>081-088>096-101>105-011900-
...SOUTHWEST MISSOURI...

CITY           SKY/WX    TMP DP  RH WIND       PRES   REMARKS
SPRINGFIELD    FAIR      72  68  87 S10       29.96F
6HR MIN TEMP:  68; 6HR MAX TEMP:  72; 6HR PCP:  0.02;

JOPLIN         FAIR      84  74  71 SE12      29.90F HX  91
6HR MIN TEMP:  77; 6HR MAX TEMP:  85; 6HR PCP: TRACE;


$$
MOZ032>034-039>042-045>050-055>058-069>072-011900-
...CENTRAL MISSOURI...

CITY           SKY/WX    TMP DP  RH WIND       PRES   REMARKS
COLUMBIA       FAIR      77  70  79 SW7       29.90F
6HR MIN TEMP:  68; 6HR MAX TEMP:  77; 6HR PCP:  0.12;

JEFFERSON CITY FAIR      76  69  79 VRB5      29.89F
6HR MIN TEMP:  69; 6HR MAX TEMP:  76; 6HR PCP:  0.16;

ROLLA          FAIR      75  69  81 SW12      29.92R
6HR MIN TEMP:  66; 6HR MAX TEMP:  76; 6HR PCP:  0.90;

SEDALIA        CLOUDY    75  70  84 SE7       29.89F
6HR MIN TEMP:  69; 6HR MAX TEMP:  75; 6HR PCP:  0.05;

OSAGE BEACH    PTSUNNY   70  66  88 E5        29.91F

$$
MOZ051-052-059>065-011900-
...EAST CENTRAL MISSOURI...

CITY           SKY/WX    TMP DP  RH WIND       PRES   REMARKS
ST LOUIS INTL  PTSUNNY   84  69  60 W13       29.91F
6HR MIN TEMP:  73; 6HR MAX TEMP:  84;

SPIRIT OF STL  PTSUNNY   80  70  71 W5        29.89F
6HR MIN TEMP:  70; 6HR MAX TEMP:  80;

ST CHARLES     PTSUNNY   80  69  69 CALM      29.89F
6HR MIN TEMP:  71; 6HR MAX TEMP:  80;


$$
MOZ072>076-082>087-097>100-106>115-011900-
...SOUTH CENTRAL AND SOUTHEAST MISSOURI...

CITY           SKY/WX    TMP DP  RH WIND       PRES   REMARKS
CAPE GIRARDEAU LGT RAIN  72  68  87 SW10      29.90F
6HR MIN TEMP:  71; 6HR MAX TEMP:  75; 6HR PCP:  0.30;

FARMINGTON     FAIR      75  70  83 SW6       29.95F
6HR MIN TEMP:  66; 6HR MAX TEMP:  75; 6HR PCP:  0.32;

WEST PLAINS    FAIR      70  67  90 S9        29.98F
6HR MIN TEMP:  68; 6HR MAX TEMP:  71; 6HR PCP:  0.52;


$$



USA.gov is the U.S. government's official web portal to all federal, state and local government web resources and services.